CZ-4C R/B, 41039

Orbit data source: Space-Track

CZ-4C R/B, 41039 is space debris in SSO originally from a launch on Thu, 26 Nov 2015 UTC launched from the Taiyaun Space Center, China (TSC). Debris objects in space refer to the collection of defunct objects orbiting the Earth. Examples of debris include non-operational satellites, rocket bodies, and fragments generated from explosions, collisions, or faulty payload assembly.

Loading next visibility...
Identifier
41039, 2015-069B
Orbit
SSO
Last TLE update
7 hours ago
Origin
Manufacturer
SAST
Mission
Spacecraft
Bus & Motor
CZ-4 STAGE 3, Unknown motor
Mass
~1,000 kg wet, ~1,000 kg dry
Launch date (UTC)
2015-11-26 (10 years ago)
Launch vehicle
Unknown
Launch site
Taiyaun Space Center, China (TSC)
Object type
Payload
Rocket body
Debris
Shape & HBR
Cyl, 2.9 m
Radar Cross Section
20.385 m², Large (>1 m²)

Expand to show TLE details & history

TLE from 7 hours ago
0 CZ-4C R/B
1 41039U 15069B   25183.60554048  .00004600  00000-0  17357-3 0  9995
2 41039  97.5244 245.7705 0063633 321.9056  37.7691 15.25657582528696
Epoch: 2025-07-02T14:31Z
TLE epoch observation values (Epoch: 2025-07-02T14:31:58.697Z)
Latitude
-0.00004°
Longitude
106.8917°
Altitude
457.462 km
Speed
7.657 km/s
True Right ascension
16h 23m 04s
True Declination
0° 00' 00"
Sunlit
Object was in full shadow at epoch
Visualization orbit readout
Latitude
61.45485°
Longitude
93.19314°
Altitude
507.668 km
Speed
7.611 km/s
Apparent Right ascension
18h 46m 43s
Apparent Declination
17° 07' 47"
Sunlit
Object is in daylight
Visualization observer readout
Local Sidereal Time
08:50:08
Azimuth
33.081° NE
Elevation
-26.12°
Doppler factor
1
Orbital elements
Apogee altitude
529.452 km
Perigee altitude
442.098 km
Semi-major axis
6,863.912 km
Eccentricity
0.00636
Inclination
97.5244°
RAAN
245.7705°
Arg. of periapsis
321.9056°
True anomaly
Unknown
Mean anomaly
37.7691°
Eccentric anomaly
Unknown
Mean motion
3.81668 °/min
Orbital period
94.32 mins
BSTAR
0.00017357
Loading maneuver chart data...
Loading SW <> Apogee altitude chart data...
Loading historical data...
Loading historical data...
Loading historical data...
Loading historical data...
Loading historical data...
Loading historical data...
Loading historical data...
Other satellites on launch #69 in the year 2015 (2015-11-26 UTC)

CZ-4C R/B Visibility forecast

Observer location: undefined°, undefined°

Span
Click to sort rows by Start time (UTC) header in descending order
Start Az.
Max El. time (UTC)
Max El. Az.
Max El.
End time (UTC)
End Az.
4 mins2025-07-03 03:16:59.944Z102.976° ESE2025-07-03 03:18:59.944Z65.092° ENE16.065°2025-07-03 03:20:59.944Z29.496° NE
4 mins2025-07-03 04:50:59.944Z231.102° WSW2025-07-03 04:51:59.944Z258.518° W24.126°2025-07-03 04:54:59.944Z320.975° NNW
4 mins2025-07-03 16:18:59.944Z67.322° ENE2025-07-03 16:19:59.944Z90.274° ESE21.819°2025-07-03 16:22:59.944Z147.142° SSE
4 mins2025-07-03 17:51:59.944Z324.562° NNW2025-07-03 17:53:59.944Z280.579° WNW20.691°2025-07-03 17:55:59.944Z244.724° WSW
|